星链-31467 (STARLINK-31467 )

导读 | 豆包AI

STARLINK-31467是美国SpaceX公司星链星座的一颗第二代小型通信卫星,于2024年3月16日由猎鹰九号运载火箭从肯尼迪航天中心发射升空,属于G6-44批次任务。作为低轨宽带卫星,它采用Ku/Ka波段通信技术,单星通信容量达165Gb/s,配备氪基霍尔推进器,具备自主避撞能力,旨在为全球提供覆盖广泛的高速卫星互联网接入服务,目前已进入预定近地轨道运行。

基本信息
目录编号:
59235
目录名称:
STARLINK-31467
国际标识:
2024-049E
轨道中心:
EARTH
卫星名称:
星链-31467
卫星全名:
星链-31467 (STARLINK-31467 )
卫星状态:
在轨 (已飞行729 天)
发射日期:
2024-03-16 UTC
国别 :
美国 (US)
星等 :
--
轨道信息
数据来源 国际轨道数据 AOE轨道数据
星历时间 2026-03-14T20:14:08+0800
1天前
查看轨道信息
2026-03-12T16:00:00+0800
3天前
查看轨道信息
半长轴 6861.199km 6861.17km
偏心率 0.0001095 0.0000017
轨道倾角 43.002° 43.003°
近地点辐角 282.277° 43.939°
升交点赤经 116.282° 128.577°
平近点角 77.796° 213.071°
近地点 482.31km 483.021km
远地点 483.814km 483.045km
周期 94.267分钟 94.266分钟
每日圈数 15.275757 15.275855
详细信息
固有亮度:
5
最大亮度:
0.3
卫星平台:
Starlink v2.0 mini
覆盖范围:
全球
运营商:
太空探索技术公司
运营商所在国:
美国
制造商(研发单位):
太空探索技术公司
制造商所在国:
美国
使用方式:
暂无
卫星简介
星链(Starlink)计划是由太空探索技术公司(SpaceX)提出的一个巨型低轨卫星互联网星座项目,计划在2019年至2024年间在太空搭建由约1.2万颗卫星组成的“星链”网络,其中1584颗将部署在地球上空550千米处的近地轨道,并从2020年开始工作。该卫星仍在工作。
2D轨道图
3D轨道图
轨道高度分析图
轨道倾角分析图
轨道综合分析图
查看轨道综合分析图